[[{"header":{"parameterUnit":"m.s-1","parameterCategory":1,"la1":30.2991,"la2":30.254,"lo1":-89.0895,"lo2":-89.0444,"dx":0.0017,"dy":0.0017,"nx":28,"ny":28,"refTime":"2022-12-30T15:00:00:Z","depth":0,"parameterNumber":2,"parameterNumberName":"U-component_of_WINDS"},"data":[0,0,0,0,0,0,0,0,0,0,0,0,0,0,0,0,0,0,0,0,0,0,0,0,0,0,0,0,0,0,0,0,0,0,0,0,0,0,0,0,0,0,0,0,0,0,0,0,0,0,0,0,0,0,0,0,0,0,-5.6971,-5.6972,0,-5.7043,-5.7043,-5.7044,-5.6958,-5.6955,-5.6952,-5.6949,-5.702,-5.7025,-5.7029,0,0,0,0,0,0,0,0,0,0,0,0,0,-5.676,-5.6764,-5.6971,-5.6972,-5.6973,-5.7042,-5.7043,-5.7044,-5.6959,-5.6955,-5.6951,-5.6947,-5.7018,-5.7024,-5.703,0,0,0,0,0,0,0,0,0,0,0,0,0,-5.6843,-5.6766,-5.6971,-5.6939,-5.6936,-5.7042,-5.7043,-5.7045,-5.6959,-5.6955,-5.695,-5.6945,-5.7016,-5.7024,-5.7031,-5.7171,0,0,-5.7053,-5.7056,0,0,0,0,0,0,0,0,-5.6839,-5.6851,-5.6943,-5.6941,-5.6939,-5.6987,-5.6995,-5.7087,-5.6961,-5.6951,-5.6949,-5.6943,-5.7013,-5.702,-5.7044,-5.7174,-5.7178,-5.7054,-5.7058,-5.7061,-5.7063,0,0,0,0,0,0,0,-5.6833,-5.6848,-5.6999,-5.6944,-5.6942,-5.692,-5.6927,-5.7012,-5.7007,-5.6951,-5.6945,-5.6955,-5.7011,-5.7037,-5.7045,-5.7179,-5.7053,-5.706,-5.7064,-5.7067,-5.7429,-5.7434,0,0,0,0,0,0,-5.6831,-5.6843,-5.6997,-5.7001,-5.6876,-5.6928,-5.6935,-5.6976,-5.7006,-5.7006,-5.6959,-5.6951,-5.7027,-5.7036,-5.7047,-5.7213,-5.7061,-5.7068,-5.7072,-5.7423,-5.743,-5.7435,0,0,0,0,0,0,-5.6827,-5.6846,-5.6994,-5.6921,-5.6938,-5.6937,-5.6983,-5.698,-5.7006,-5.7012,-5.7011,-5.6986,-5.7023,-5.7037,-5.7141,-5.7214,-5.7071,-5.7078,-5.7417,-5.7425,-5.7433,-5.7546,0,0,0,0,0,0,-5.6821,-5.6845,-5.6898,-5.6923,-5.6942,-5.7088,-5.6988,-5.6985,-5.7019,-5.7009,-5.7038,-5.7038,-5.7021,-5.7131,-5.7148,-5.7221,-5.7084,-5.7411,-5.7421,-5.743,-5.7536,-5.7557,-5.7575,0,0,0,0,0,-5.6814,-5.6927,-5.6901,-5.692,-5.7009,-5.7092,-5.7103,-5.7081,-5.7025,-5.7079,-5.7083,-5.7037,-5.7204,-5.7142,-5.7161,-5.7238,-5.7406,-5.7418,-5.7429,-5.7527,-5.7553,-5.7575,0,0,0,0,0,0,-5.6909,-5.6929,-5.6901,-5.7025,-5.7058,-5.7077,-5.7144,-5.7109,-5.7158,-5.7146,-5.7117,-5.7124,-5.7236,-5.7247,-5.7178,-5.7376,-5.7296,-5.7312,-5.7363,-5.7388,-5.7407,-5.7401,-5.709,0,0,0,0,0,-5.6945,-5.7011,-5.7025,-5.7133,-5.7151,-5.7145,-5.718,-5.7161,-5.7193,-5.7206,-5.7218,-5.7251,-5.731,-5.735,-5.7405,-5.7538,-5.7543,-5.76,-5.762,-5.7636,-5.7649,-5.772,-5.7746,-5.7474,-5.7474,-5.7474,0,0,-5.7019,-5.7038,-5.7081,-5.7153,-5.7176,-5.7244,-5.7157,-5.7233,-5.7284,-5.7218,-5.7317,-5.7327,-5.7362,-5.7481,-5.7534,-5.7494,-5.7726,-5.7651,-5.7664,-5.7668,-5.7735,-5.7761,-5.7784,-5.7482,-5.7481,-5.7479,0,0,-5.7188,-5.721,-5.7302,-5.7328,-5.7364,-5.736,-5.7382,-5.7408,-5.7412,-5.7512,-5.7464,-5.7524,-5.7627,-5.7654,-5.7681,-5.7863,-5.7822,-5.7882,-5.7983,-5.8053,-5.8074,-5.8093,-5.8157,-5.818,-5.7896,-5.7897,-5.7897,0,-5.7274,-5.7376,-5.7354,-5.7434,-5.7466,-5.7412,-5.7505,-5.7531,-5.7583,-5.7607,-5.7562,-5.7691,-5.7711,-5.7835,-5.788,-5.7905,-5.7929,-5.7877,-5.8073,-5.8092,-5.8109,-5.8169,-5.8194,-5.7903,-5.7903,-5.7902,-5.7901,0,-5.7481,-5.7553,-5.7623,-5.7676,-5.7717,-5.7803,-5.7793,-5.7838,-5.7816,-5.7817,-5.7919,-5.7941,-5.8,-5.8029,-5.8008,-5.8151,-5.8125,-5.8078,-5.7996,-5.8142,-5.8198,-5.8222,-5.7913,-5.7911,-5.7909,-5.7907,0,0,-5.7708,-5.775,-5.7776,-5.78,-5.7837,-5.7892,-5.7976,-5.8035,-5.8073,-5.8112,-5.8181,-5.8272,-5.8228,-5.8259,-5.8241,-5.8303,-5.8445,-5.8247,-5.8248,-5.8282,-5.8603,-5.8637,-5.8664,-5.842,-5.8424,-5.8427,-5.86,0,-5.7876,-5.8023,-5.8006,-5.8145,-5.8211,-5.8162,-5.8235,-5.8266,-5.827,-5.8326,-5.833,-5.8394,-5.8333,-5.8351,-5.841,-5.8415,-5.8509,-5.8403,-5.8482,-5.8486,-5.8473,-5.8694,-5.873,-5.8891,-5.8622,-5.8626,-5.8628,0,-5.8091,-5.8139,-5.8286,-5.8314,-5.8341,-5.8408,-5.846,-5.8515,-5.855,-5.8548,-5.8584,-5.8556,-5.8641,-5.856,-5.8676,-5.8604,-5.8636,-5.8645,-5.865,-5.8655,-5.8564,-5.8703,-5.8942,-5.8966,-5.8663,-5.866,-5.8658,0,-5.8241,-5.8342,-5.8443,-5.8465,-5.8501,-5.8549,-5.8566,-5.8596,-5.8633,-5.8679,-5.8703,-5.8759,-5.8789,-5.8833,-5.882,-5.8763,-5.8939,-5.8857,-5.8939,-5.8939,-5.8975,-5.8973,-5.9222,-5.9001,-5.9,-5.9,-5.8999,0,-5.8429,-5.852,-5.851,-5.8572,-5.8673,-5.8654,-5.8754,-5.8765,-5.8793,-5.8855,-5.8817,-5.8876,-5.8858,-5.8917,-5.8908,-5.9005,-5.9019,-5.9019,-5.9015,-5.9022,-5.9021,-5.904,-5.9028,-5.9006,-5.9005,-5.9003,-5.9002,0,-5.8611,-5.8609,-5.8715,-5.8742,-5.8751,-5.8824,-5.8846,-5.8904,-5.8906,-5.8986,-5.9004,-5.9006,-5.9074,-5.9067,-5.9142,-5.9136,-5.9256,-5.924,-5.9244,-5.924,-5.9321,-5.9313,-5.9589,-5.9623,-5.9382,-5.9384,-5.9386,0,-5.873,-5.8799,-5.8834,-5.8874,-5.8895,-5.8959,-5.8997,-5.8982,-5.9023,-5.9068,-5.9121,-5.9185,-5.9235,-5.9346,-5.9354,-5.9412,-5.9395,-5.9488,-5.9403,-5.9407,-5.9394,-5.9389,-5.9396,-5.9504,-5.9506,-5.9509,-5.951,0,-5.894,-5.8936,-5.8993,-5.905,-5.9097,-5.914,-5.918,-5.9215,-5.9203,-5.9252,-5.9321,-5.936,-5.9438,-5.9502,-5.9557,-5.9574,-5.9541,-5.9538,-5.9559,-5.9565,-5.9564,-5.9564,-5.9287,-5.9531,-5.9529,-5.9527,-5.9526,-5.9525,-5.9093,-5.9152,-5.9186,-5.9251,-5.928,-5.9319,-5.9374,-5.9385,-5.9442,-5.9505,-5.9493,-5.957,-5.9604,-5.9675,-5.9698,-5.9759,-5.9725,-5.9756,-5.9764,-5.9771,-5.978,-5.9557,-5.9769,-5.9768,-5.9768,-5.9767,-5.9767,0,-5.93,-5.932,-5.938,-5.9438,-5.9489,-5.9455,-5.9498,-5.9542,-5.9612,-5.9647,-5.9698,-5.9778,-5.984,-5.9855,-5.9915,-5.996,-5.9946,-5.9976,-5.9971,-5.9976,-5.9808,-5.9782,-5.9987,-5.9987,-5.9987,-5.9987,-5.9987,-5.9986,-5.9413,-5.9511,-5.9512,-5.9625,-5.9644,-5.9721,-5.9748,-5.9784,-5.9812,-5.9903,-5.9955,-5.9965,-5.9992,-6.0054,-6.011,-6.0113,-6.0136,-6.0172,-6.0168,-6.001,-5.9988,-5.9967,-5.9942,-6.0177,-6.0178,-6.0331,-6.0332,-6.0333]},{"header":{"parameterUnit":"m.s-1","parameterCategory":1,"la1":30.2991,"la2":30.254,"lo1":-89.0895,"lo2":-89.0444,"dx":0.0017,"dy":0.0017,"nx":28,"ny":28,"refTime":"2022-12-30T15:00:00:Z","depth":0,"parameterNumber":3,"parameterNumberName":"V-component_of_WINDS"},"data":[0,0,0,0,0,0,0,0,0,0,0,0,0,0,0,0,0,0,0,0,0,0,0,0,0,0,0,0,0,0,0,0,0,0,0,0,0,0,0,0,0,0,0,0,0,0,0,0,0,0,0,0,0,0,0,0,0,0,1.3928,1.3928,0,1.3947,1.3947,1.3947,1.3957,1.3957,1.3957,1.3957,1.3976,1.3976,1.3977,0,0,0,0,0,0,0,0,0,0,0,0,0,1.3901,1.3901,1.3928,1.3928,1.3928,1.3947,1.3947,1.3948,1.3957,1.3957,1.3957,1.3957,1.3976,1.3976,1.3977,0,0,0,0,0,0,0,0,0,0,0,0,0,1.3915,1.3901,1.3928,1.3935,1.3936,1.3947,1.3947,1.3948,1.3957,1.3957,1.3957,1.3957,1.3976,1.3976,1.3977,1.3981,0,0,1.3979,1.398,0,0,0,0,0,0,0,0,1.3915,1.3916,1.3934,1.3935,1.3936,1.395,1.3945,1.3959,1.3957,1.3949,1.3957,1.3957,1.3967,1.3969,1.3972,1.3982,1.3983,1.3979,1.398,1.398,1.398,0,0,0,0,0,0,0,1.3914,1.3916,1.3935,1.3934,1.3935,1.3938,1.394,1.3947,1.3958,1.395,1.3951,1.3953,1.3968,1.3971,1.3973,1.3983,1.3979,1.398,1.398,1.3981,1.4002,1.4002,0,0,0,0,0,0,1.3911,1.3915,1.3935,1.3936,1.3925,1.3939,1.3941,1.3945,1.3958,1.396,1.3953,1.3953,1.397,1.3972,1.3973,1.3981,1.398,1.3981,1.3981,1.4001,1.4002,1.4002,0,0,0,0,0,0,1.3911,1.3913,1.3934,1.3926,1.3928,1.3939,1.3944,1.3946,1.3949,1.396,1.3962,1.3955,1.397,1.3972,1.398,1.3982,1.3981,1.3982,1.4001,1.4001,1.4002,1.3996,0,0,0,0,0,0,1.391,1.3913,1.3914,1.3926,1.3929,1.394,1.3944,1.3946,1.3951,1.3952,1.3962,1.3964,1.397,1.3979,1.3981,1.3983,1.3982,1.4001,1.4001,1.4002,1.3996,1.3996,1.3996,0,0,0,0,0,1.3909,1.391,1.3913,1.3916,1.393,1.394,1.3942,1.3949,1.3951,1.3953,1.396,1.3964,1.3982,1.398,1.3982,1.3984,1.4001,1.4001,1.4002,1.3996,1.3996,1.3996,0,0,0,0,0,0,1.3896,1.3912,1.3916,1.3921,1.3929,1.3941,1.3943,1.3948,1.3956,1.3956,1.3965,1.3968,1.3975,1.3981,1.3978,1.3991,1.3992,1.3993,1.3987,1.3987,1.3987,1.3986,1.3983,0,0,0,0,0,1.3895,1.3901,1.3914,1.3917,1.3921,1.3932,1.3936,1.3942,1.3951,1.3954,1.3962,1.397,1.3978,1.3983,1.399,1.3997,1.4001,1.4,1.4,1.4,1.4001,1.4008,1.4008,1.4003,1.4003,1.4003,0,0,1.389,1.3899,1.3902,1.3915,1.3922,1.393,1.3934,1.3941,1.3947,1.3955,1.3963,1.397,1.398,1.3988,1.3992,1.3993,1.4003,1.4001,1.4,1.4001,1.4008,1.4009,1.4009,1.4003,1.4003,1.4003,0,0,1.3886,1.3893,1.3898,1.3906,1.3918,1.3925,1.3927,1.3939,1.3944,1.3953,1.396,1.3968,1.398,1.3988,1.3994,1.3998,1.4002,1.4,1.3999,1.4006,1.4007,1.4007,1.401,1.4011,1.4001,1.4001,1.4001,0,1.3879,1.389,1.39,1.3907,1.3914,1.3923,1.3929,1.3936,1.3949,1.3954,1.3955,1.3974,1.3981,1.3993,1.3994,1.3998,1.4001,1.3998,1.4006,1.4007,1.4007,1.401,1.4011,1.4,1.4,1.4,1.4,0,1.3882,1.389,1.3893,1.3907,1.3914,1.392,1.3932,1.3938,1.3945,1.3953,1.3963,1.3973,1.3984,1.3988,1.3993,1.4001,1.4002,1.4004,1.4005,1.4007,1.4011,1.4012,1.4,1.4,1.4,1.4,0,0,1.3867,1.3891,1.3891,1.39,1.3915,1.3922,1.393,1.3942,1.3948,1.3958,1.3966,1.3979,1.3983,1.3989,1.3996,1.4002,1.4007,1.4004,1.4005,1.4006,1.402,1.4019,1.402,1.4011,1.4011,1.4011,1.402,0,1.3866,1.3882,1.3893,1.3905,1.3914,1.3925,1.3933,1.3944,1.3953,1.3962,1.3971,1.3981,1.3984,1.3989,1.3995,1.4005,1.401,1.4005,1.402,1.402,1.4017,1.4021,1.4019,1.4026,1.4021,1.4021,1.4021,0,1.3866,1.3878,1.3891,1.3909,1.3913,1.392,1.3934,1.3943,1.3957,1.3963,1.3972,1.398,1.3991,1.3992,1.4008,1.4004,1.4012,1.4018,1.4018,1.402,1.4021,1.4024,1.4028,1.403,1.4023,1.4023,1.4023,0,1.3857,1.3876,1.3887,1.3893,1.3914,1.3919,1.3928,1.3942,1.395,1.3963,1.3969,1.3982,1.3989,1.4,1.4012,1.4011,1.4028,1.4029,1.4034,1.4034,1.4037,1.4036,1.4043,1.404,1.404,1.404,1.404,0,1.3854,1.3862,1.3883,1.389,1.39,1.3914,1.3924,1.3934,1.3947,1.3957,1.3967,1.3977,1.3991,1.4003,1.4012,1.4026,1.4029,1.4035,1.4037,1.4034,1.4034,1.4039,1.4039,1.404,1.404,1.404,1.404,0,1.3844,1.3859,1.3872,1.3892,1.3898,1.3905,1.3922,1.393,1.3941,1.3954,1.3958,1.3974,1.3989,1.4002,1.402,1.4027,1.4042,1.4044,1.4037,1.4039,1.4044,1.4044,1.4054,1.4058,1.4052,1.4052,1.4052,0,1.3842,1.3849,1.3871,1.3879,1.3888,1.3901,1.391,1.3925,1.3934,1.3953,1.3959,1.3975,1.3988,1.4011,1.4025,1.4041,1.4044,1.4047,1.4046,1.4044,1.4046,1.4046,1.4048,1.4047,1.4047,1.4047,1.4047,0,1.3837,1.3845,1.3858,1.3875,1.3886,1.3899,1.3913,1.3919,1.3937,1.3948,1.3964,1.3974,1.3995,1.4011,1.4029,1.4039,1.4047,1.4048,1.405,1.4047,1.4043,1.4047,1.4038,1.4047,1.4047,1.4047,1.4047,1.4047,1.3831,1.384,1.3858,1.3873,1.3886,1.39,1.3909,1.3923,1.3936,1.3955,1.3964,1.398,1.3998,1.4023,1.4033,1.4047,1.4048,1.4051,1.4052,1.4053,1.4053,1.4041,1.405,1.405,1.405,1.405,1.405,0,1.3828,1.3842,1.3856,1.3876,1.3889,1.3897,1.3914,1.3924,1.3939,1.3955,1.3969,1.3989,1.4006,1.4023,1.4041,1.4049,1.4054,1.4054,1.4053,1.4056,1.405,1.4047,1.405,1.405,1.405,1.405,1.405,1.405,1.3828,1.3843,1.3854,1.3876,1.389,1.3907,1.3917,1.393,1.3943,1.3966,1.398,1.3992,1.4009,1.4029,1.4046,1.4051,1.4057,1.4057,1.4063,1.4056,1.4056,1.4056,1.4053,1.4058,1.4058,1.4068,1.4068,1.4068]}]]